| time (UTC) | temp F | wind direction | speed MPH | gust MPH | rain 1hr in | rain 24hr in | rain mn in | humidity % | barometer mb |
| 20260505182525 | 81 | 204 | 5.0 | 12.0 | 0.00 | 0.00 | 0.00 | 85 | 1004.9 |
| 20260505181625 | 81 | 203 | 6.0 | 17.0 | 0.00 | 0.00 | 0.00 | 84 | 1004.9 |
| 20260505180725 | 81 | 197 | 5.0 | 14.0 | 0.00 | 0.00 | 0.00 | 85 | 1005.1 |
| 20260505175825 | 80 | 200 | 4.0 | 15.0 | 0.00 | 0.00 | 0.00 | 85 | 1005.1 |
| 20260505174924 | 80 | 197 | 6.0 | 14.0 | 0.00 | 0.00 | 0.00 | 85 | 1005.4 |
| 20260505174025 | 80 | 195 | 7.0 | 17.0 | 0.00 | 0.00 | 0.00 | 85 | 1005.4 |
| 20260505173124 | 80 | 224 | 3.0 | 15.0 | 0.00 | 0.00 | 0.00 | 85 | 1005.4 |
| 20260505172225 | 80 | 190 | 3.0 | 14.0 | 0.00 | 0.00 | 0.00 | 86 | 1005.4 |
| 20260505170425 | 80 | 199 | 5.0 | 12.0 | 0.00 | 0.00 | 0.00 | 86 | 1005.5 |
| 20260505164624 | 80 | 196 | 4.0 | 11.0 | 0.00 | 0.00 | 0.00 | 86 | 1005.5 |
| 20260505163724 | 80 | 194 | 3.0 | 12.0 | 0.00 | 0.00 | 0.00 | 87 | 1005.5 |
| 20260505162825 | 79 | 216 | 4.0 | 12.0 | 0.00 | 0.00 | 0.00 | 87 | 1005.5 |
| 20260505161925 | 79 | 211 | 5.0 | 15.0 | 0.00 | 0.00 | 0.00 | 87 | 1005.4 |
| 20260505161025 | 79 | 205 | 5.0 | 15.0 | 0.00 | 0.00 | 0.00 | 86 | 1005.3 |
| 20260505160124 | 79 | 200 | 5.0 | 15.0 | 0.00 | 0.00 | 0.00 | 87 | 1005.3 |
| 20260505152525 | 78 | 205 | 3.0 | 12.0 | 0.00 | 0.00 | 0.00 | 87 | 1005.0 |
| 20260505150725 | 78 | 192 | 5.0 | 15.0 | 0.00 | 0.00 | 0.00 | 88 | 1004.9 |
| 20260505140425 | 76 | 196 | 5.0 | 12.0 | 0.00 | 0.00 | 0.00 | 91 | 1005.1 |
| 20260505130124 | 74 | 199 | 2.0 | 12.0 | 0.00 | 0.00 | 0.00 | 93 | 1004.9 |
| 20260505124324 | 74 | 184 | 2.0 | 10.0 | 0.00 | 0.00 | 0.00 | 93 | 1004.8 |
| 20260505123424 | 73 | 184 | 4.0 | 10.0 | 0.00 | 0.00 | 0.00 | 94 | 1004.6 |
| 20260505122525 | 73 | 174 | 2.0 | 11.0 | 0.00 | 0.00 | 0.00 | 93 | 1004.1 |
| 20260505121624 | 73 | 183 | 2.0 | 11.0 | 0.00 | 0.00 | 0.00 | 93 | 1004.1 |
| 20260505115825 | 73 | 189 | 2.0 | 8.0 | 0.00 | 0.00 | 0.00 | 93 | 1004.4 |
| 20260505114924 | 73 | 174 | 0.0 | 6.0 | 0.00 | 0.00 | 0.00 | 93 | 1004.5 |
| 20260505114025 | 73 | 177 | 1.0 | 9.0 | 0.00 | 0.00 | 0.00 | 93 | 1004.3 |
| 20260505113124 | 73 | 186 | 2.0 | 9.0 | 0.00 | 0.00 | 0.00 | 93 | 1004.3 |